[[{"header":{"parameterUnit":"m.s-1","parameterCategory":1,"la1":30.2991,"la2":30.254,"lo1":-89.0895,"lo2":-89.0444,"dy":0.0017,"dx":0.0017,"nx":28,"ny":28,"refTime":"2024-08-07T09:00:00:Z","depth":0,"parameterNumber":2,"parameterNumberName":"U-component_of_WINDS"},"data":[0,0,0,0,0,0,0,0,0,0,0,0,0,0,0,0,0,0,0,0,0,0,0,0,0,0,0,0,0,0,0,0,0,0,0,0,0,0,0,0,0,0,0,0,0,0,0,0,0,0,0,0,0,0,0,0,0,0,1.266,1.2661,0,1.2806,1.2807,1.2809,1.2886,1.2886,1.2886,1.2886,1.3036,1.304,1.3044,0,0,0,0,0,0,0,0,0,0,0,0,0,1.2448,1.2451,1.2659,1.2661,1.2663,1.2805,1.2807,1.2809,1.2886,1.2886,1.2886,1.2886,1.3035,1.304,1.3044,0,0,0,0,0,0,0,0,0,0,0,0,0,1.2561,1.2452,1.2659,1.2718,1.2725,1.2805,1.2807,1.281,1.2886,1.2886,1.2886,1.2886,1.3034,1.3039,1.3045,1.3077,0,0,1.3063,1.3065,0,0,0,0,0,0,0,0,1.2555,1.2569,1.2708,1.2714,1.2722,1.2828,1.2788,1.29,1.2886,1.2825,1.2886,1.2887,1.2967,1.2978,1.3005,1.3084,1.3091,1.3063,1.3067,1.3069,1.3071,0,0,0,0,0,0,0,1.2547,1.2563,1.2717,1.271,1.2719,1.2738,1.2754,1.2809,1.2893,1.283,1.2836,1.2852,1.2971,1.2999,1.3009,1.3093,1.3063,1.3068,1.3072,1.3074,1.3207,1.3207,0,0,0,0,0,0,1.2529,1.2556,1.2713,1.2722,1.2637,1.2742,1.276,1.2794,1.2893,1.2908,1.2852,1.2855,1.2989,1.3002,1.3015,1.306,1.3069,1.3075,1.3078,1.3207,1.3207,1.3207,0,0,0,0,0,0,1.2524,1.2543,1.2707,1.2641,1.2663,1.2745,1.2782,1.2796,1.2825,1.2909,1.2925,1.2866,1.299,1.3007,1.3061,1.3066,1.3077,1.3083,1.3207,1.3207,1.3207,1.3149,0,0,0,0,0,0,1.2518,1.254,1.2553,1.264,1.2666,1.275,1.2783,1.2799,1.2835,1.2841,1.2926,1.294,1.2991,1.3052,1.3067,1.3074,1.3087,1.3207,1.3207,1.3207,1.3151,1.3147,1.3144,0,0,0,0,0,1.251,1.2531,1.2553,1.2572,1.2684,1.275,1.2765,1.2823,1.2835,1.2849,1.2903,1.2938,1.3063,1.3057,1.3075,1.3083,1.3207,1.3207,1.3207,1.3152,1.3148,1.3144,0,0,0,0,0,0,1.2441,1.2543,1.2569,1.2618,1.2675,1.2763,1.2782,1.2816,1.2871,1.2874,1.2944,1.2963,1.3011,1.3053,1.3044,1.312,1.3139,1.3142,1.3091,1.3087,1.3084,1.3073,1.3092,0,0,0,0,0,1.2432,1.2477,1.2564,1.2599,1.2626,1.2699,1.273,1.277,1.2832,1.2856,1.2914,1.2973,1.3026,1.3059,1.3112,1.3157,1.3177,1.3172,1.3168,1.3165,1.3167,1.3195,1.3194,1.3207,1.3207,1.3207,0,0,1.2413,1.2474,1.2498,1.2587,1.2635,1.2681,1.2718,1.2765,1.28,1.2863,1.2918,1.2963,1.3034,1.3084,1.3109,1.312,1.3168,1.3165,1.3162,1.3166,1.3195,1.3194,1.3193,1.3207,1.3207,1.3207,0,0,1.2401,1.2452,1.2487,1.2535,1.2609,1.2657,1.2665,1.2749,1.2781,1.2838,1.2886,1.2929,1.3018,1.3067,1.3103,1.3111,1.3145,1.3126,1.3108,1.3134,1.3133,1.3133,1.3136,1.3136,1.3128,1.3128,1.3128,0,1.2368,1.2439,1.2501,1.2545,1.2583,1.2642,1.2679,1.2723,1.281,1.2834,1.2846,1.296,1.3012,1.3074,1.3076,1.3104,1.3116,1.3117,1.3128,1.3128,1.3129,1.3133,1.3134,1.3125,1.3126,1.3126,1.3126,0,1.2395,1.2443,1.2463,1.2545,1.2585,1.2625,1.2694,1.2727,1.2764,1.2811,1.2869,1.2933,1.3001,1.3019,1.3055,1.3087,1.3092,1.3115,1.3135,1.3124,1.3129,1.3131,1.3122,1.3123,1.3123,1.3124,0,0,1.2343,1.246,1.2466,1.2505,1.2591,1.2629,1.2673,1.2739,1.2766,1.2825,1.2863,1.2938,1.296,1.3001,1.3044,1.3067,1.307,1.3088,1.309,1.3082,1.311,1.3092,1.3093,1.3094,1.3094,1.3095,1.3105,0,1.2343,1.2423,1.2481,1.2539,1.2585,1.2643,1.2681,1.2738,1.2784,1.283,1.2881,1.2933,1.2958,1.2984,1.3009,1.3064,1.3077,1.3064,1.313,1.3132,1.3111,1.3095,1.3076,1.3082,1.3107,1.3107,1.3107,0,1.2354,1.2411,1.2473,1.2555,1.2577,1.2609,1.2676,1.2719,1.2785,1.2817,1.2864,1.2908,1.2957,1.2972,1.3041,1.3031,1.3062,1.3093,1.3095,1.3103,1.3119,1.3103,1.3086,1.3086,1.3111,1.3111,1.3111,0,1.231,1.2402,1.2451,1.2483,1.258,1.2602,1.2643,1.271,1.2746,1.2804,1.2829,1.2892,1.2926,1.2974,1.3034,1.304,1.3097,1.3118,1.3126,1.3124,1.3135,1.3133,1.3121,1.3154,1.3154,1.3154,1.3154,0,1.2304,1.234,1.2433,1.2463,1.2506,1.2572,1.2613,1.2659,1.2718,1.2759,1.2814,1.2851,1.2929,1.2976,1.3023,1.3073,1.3089,1.3116,1.3128,1.3111,1.3108,1.3132,1.3133,1.3155,1.3154,1.3154,1.3154,0,1.2261,1.2325,1.2383,1.247,1.2493,1.2521,1.2596,1.2628,1.2678,1.2729,1.2745,1.2823,1.2881,1.2946,1.3026,1.3058,1.3106,1.3123,1.3083,1.309,1.3094,1.3093,1.3098,1.3102,1.3131,1.3131,1.3131,0,1.2253,1.2282,1.2373,1.2405,1.2445,1.2494,1.2532,1.26,1.2637,1.2716,1.2739,1.2801,1.2855,1.2946,1.301,1.3071,1.3091,1.3089,1.31,1.3083,1.3091,1.3089,1.3092,1.3084,1.3084,1.3083,1.3083,0,1.2232,1.2262,1.2314,1.2378,1.2422,1.2475,1.2531,1.2554,1.2632,1.2672,1.2732,1.2774,1.2856,1.2918,1.2988,1.3032,1.307,1.3079,1.3084,1.3067,1.3042,1.3056,1.3073,1.3078,1.3079,1.3079,1.3079,1.3079,1.2206,1.2235,1.2304,1.2361,1.241,1.2461,1.2496,1.255,1.2602,1.2674,1.2711,1.2771,1.2839,1.2937,1.298,1.3028,1.3041,1.3048,1.305,1.3051,1.3046,1.3035,1.3041,1.3042,1.3042,1.3042,1.3042,0,1.2188,1.2235,1.2287,1.2363,1.2408,1.2442,1.2506,1.2541,1.2593,1.2653,1.2705,1.2775,1.2836,1.2905,1.297,1.2996,1.3016,1.3011,1.301,1.3019,1.3031,1.302,1.2994,1.2994,1.2994,1.2994,1.2994,1.2994,1.2183,1.2234,1.2273,1.2349,1.2397,1.2457,1.249,1.2538,1.2586,1.2662,1.2713,1.2758,1.2822,1.2893,1.295,1.2969,1.2991,1.2981,1.3005,1.3014,1.3018,1.3022,1.3012,1.2985,1.2985,1.2989,1.2989,1.2989]},{"header":{"parameterUnit":"m.s-1","parameterCategory":1,"la1":30.2991,"la2":30.254,"lo1":-89.0895,"lo2":-89.0444,"dy":0.0017,"dx":0.0017,"nx":28,"ny":28,"refTime":"2024-08-07T09:00:00:Z","depth":0,"parameterNumber":3,"parameterNumberName":"V-component_of_WINDS"},"data":[0,0,0,0,0,0,0,0,0,0,0,0,0,0,0,0,0,0,0,0,0,0,0,0,0,0,0,0,0,0,0,0,0,0,0,0,0,0,0,0,0,0,0,0,0,0,0,0,0,0,0,0,0,0,0,0,0,0,-4.7652,-4.7651,0,-4.762,-4.762,-4.762,-4.7493,-4.749,-4.7488,-4.7485,-4.7454,-4.7455,-4.7457,0,0,0,0,0,0,0,0,0,0,0,0,0,-4.7604,-4.7606,-4.7652,-4.7651,-4.7651,-4.762,-4.762,-4.7619,-4.7494,-4.749,-4.7487,-4.7484,-4.7453,-4.7455,-4.7457,0,0,0,0,0,0,0,0,0,0,0,0,0,-4.7604,-4.7606,-4.7652,-4.7585,-4.7578,-4.762,-4.762,-4.7619,-4.7495,-4.749,-4.7486,-4.7482,-4.7452,-4.7455,-4.7458,-4.7562,0,0,-4.7466,-4.7468,0,0,0,0,0,0,0,0,-4.7604,-4.7606,-4.7595,-4.7589,-4.7582,-4.7556,-4.7592,-4.76,-4.7496,-4.7526,-4.7485,-4.748,-4.7491,-4.7491,-4.7494,-4.7561,-4.756,-4.7467,-4.7468,-4.7469,-4.747,0,0,0,0,0,0,0,-4.7605,-4.7607,-4.7639,-4.7595,-4.7587,-4.7556,-4.7552,-4.7593,-4.7534,-4.7523,-4.7514,-4.7512,-4.7487,-4.7492,-4.7493,-4.7559,-4.7466,-4.7469,-4.7471,-4.7472,-4.7711,-4.7715,0,0,0,0,0,0,-4.7614,-4.7608,-4.764,-4.7638,-4.7583,-4.7561,-4.7555,-4.7569,-4.7533,-4.7523,-4.7516,-4.7506,-4.7489,-4.749,-4.7491,-4.7611,-4.7469,-4.7472,-4.7474,-4.7706,-4.7712,-4.7717,0,0,0,0,0,0,-4.7614,-4.7618,-4.7641,-4.762,-4.7621,-4.7566,-4.7583,-4.7571,-4.7575,-4.7527,-4.7516,-4.7532,-4.7486,-4.7487,-4.7546,-4.7608,-4.7473,-4.7476,-4.7701,-4.7708,-4.7714,-4.7853,0,0,0,0,0,0,-4.7613,-4.7619,-4.7657,-4.7622,-4.7623,-4.7696,-4.7586,-4.7573,-4.758,-4.7568,-4.7539,-4.753,-4.7482,-4.7542,-4.7549,-4.761,-4.7478,-4.7695,-4.7704,-4.7712,-4.7842,-4.7863,-4.7882,0,0,0,0,0,-4.7611,-4.7697,-4.766,-4.7665,-4.767,-4.77,-4.77,-4.7644,-4.7586,-4.7625,-4.7594,-4.7531,-4.7601,-4.7549,-4.7555,-4.7618,-4.7691,-4.7701,-4.7712,-4.7833,-4.7859,-4.7881,0,0,0,0,0,0,-4.7741,-4.7691,-4.7649,-4.7726,-4.7719,-4.7679,-4.7726,-4.7673,-4.7681,-4.7669,-4.7598,-4.7593,-4.7662,-4.7646,-4.7589,-4.7718,-4.7635,-4.7648,-4.7726,-4.775,-4.7769,-4.7771,-4.748,0,0,0,0,0,-4.7779,-4.7807,-4.7762,-4.7835,-4.7833,-4.7781,-4.7792,-4.7749,-4.7738,-4.7734,-4.7707,-4.77,-4.7719,-4.7734,-4.775,-4.784,-4.7832,-4.7887,-4.7906,-4.7923,-4.7934,-4.798,-4.8004,-4.7751,-4.7751,-4.7751,0,0,-4.7856,-4.7833,-4.7855,-4.786,-4.7849,-4.7881,-4.7779,-4.7816,-4.7839,-4.7739,-4.7793,-4.7774,-4.776,-4.7836,-4.7867,-4.7824,-4.8002,-4.7936,-4.795,-4.7951,-4.7994,-4.8018,-4.8039,-4.7759,-4.7757,-4.7756,0,0,-4.8013,-4.7999,-4.8058,-4.8049,-4.8034,-4.7998,-4.8013,-4.7982,-4.7965,-4.8018,-4.7944,-4.7971,-4.8007,-4.8001,-4.8002,-4.816,-4.8102,-4.8168,-4.827,-4.8316,-4.8336,-4.8354,-4.841,-4.8431,-4.8179,-4.8179,-4.818,0,-4.8112,-4.8156,-4.8095,-4.8137,-4.8142,-4.8055,-4.8114,-4.8109,-4.81,-4.8105,-4.8058,-4.8102,-4.8086,-4.8159,-4.8198,-4.8202,-4.8216,-4.8169,-4.8338,-4.8355,-4.837,-4.8423,-4.8444,-4.8187,-4.8186,-4.8185,-4.8185,0,-4.8277,-4.8309,-4.8359,-4.8352,-4.8363,-4.8414,-4.8361,-4.838,-4.8337,-4.8307,-4.8363,-4.8342,-4.8352,-4.8367,-4.8325,-4.8434,-4.8408,-4.8351,-4.8266,-4.8403,-4.8451,-4.8471,-4.8199,-4.8196,-4.8193,-4.8191,0,0,-4.8512,-4.8473,-4.8492,-4.8489,-4.8467,-4.849,-4.8538,-4.8548,-4.8565,-4.8563,-4.8601,-4.8635,-4.8582,-4.8584,-4.8542,-4.8583,-4.8709,-4.852,-4.8519,-4.8556,-4.8828,-4.887,-4.8894,-4.8672,-4.8675,-4.8678,-4.8829,0,-4.8661,-4.8739,-4.8687,-4.8774,-4.8803,-4.8722,-4.8764,-4.8756,-4.873,-4.8751,-4.8723,-4.8748,-4.8677,-4.8677,-4.8715,-4.8686,-4.8763,-4.8675,-4.8706,-4.8708,-4.8711,-4.8919,-4.8964,-4.9106,-4.8847,-4.885,-4.8853,0,-4.8845,-4.8851,-4.8941,-4.8914,-4.8924,-4.8963,-4.8969,-4.899,-4.898,-4.8958,-4.8962,-4.8909,-4.8955,-4.8873,-4.8935,-4.8876,-4.8887,-4.8875,-4.8879,-4.8879,-4.8788,-4.8924,-4.915,-4.9172,-4.8882,-4.8879,-4.8877,0,-4.9006,-4.9037,-4.9095,-4.9095,-4.9065,-4.9094,-4.9083,-4.9068,-4.9078,-4.9084,-4.909,-4.9101,-4.9107,-4.9118,-4.907,-4.9015,-4.9139,-4.9052,-4.9122,-4.9123,-4.915,-4.9149,-4.9381,-4.916,-4.9159,-4.9159,-4.9158,0,-4.9177,-4.9235,-4.9167,-4.9203,-4.9266,-4.9207,-4.9271,-4.9252,-4.924,-4.927,-4.9202,-4.9233,-4.9168,-4.9193,-4.9156,-4.9213,-4.9216,-4.9201,-4.919,-4.9206,-4.9208,-4.921,-4.9199,-4.9164,-4.9163,-4.9162,-4.9161,0,-4.9367,-4.9324,-4.9381,-4.935,-4.9343,-4.9391,-4.9364,-4.9396,-4.9367,-4.9407,-4.9413,-4.9367,-4.9393,-4.9347,-4.9366,-4.9341,-4.9421,-4.9396,-4.9425,-4.9417,-4.9489,-4.9482,-4.9729,-4.9759,-4.952,-4.9522,-4.9524,0,-4.9477,-4.952,-4.9494,-4.951,-4.9503,-4.9529,-4.9539,-4.9484,-4.9497,-4.949,-4.9523,-4.9543,-4.9555,-4.96,-4.9568,-4.9583,-4.9557,-4.9642,-4.9558,-4.9573,-4.9557,-4.9555,-4.9559,-4.9659,-4.9662,-4.9664,-4.9666,0,-4.9679,-4.9656,-4.9673,-4.9684,-4.9699,-4.9704,-4.9705,-4.9722,-4.9663,-4.9682,-4.9707,-4.9717,-4.9738,-4.9758,-4.9766,-4.9755,-4.9702,-4.9694,-4.971,-4.9726,-4.9741,-4.9733,-4.9471,-4.9687,-4.9685,-4.9684,-4.9683,-4.9682,-4.9831,-4.9866,-4.9853,-4.9875,-4.987,-4.9873,-4.9902,-4.9877,-4.9897,-4.9909,-4.9876,-4.9909,-4.9899,-4.9904,-4.99,-4.9925,-4.9887,-4.9911,-4.9917,-4.9924,-4.9935,-4.9739,-4.9927,-4.9926,-4.9925,-4.9925,-4.9924,0,-5.0028,-5.0016,-5.0038,-5.0041,-5.0059,-5.0008,-5.0007,-5.0026,-5.0056,-5.0051,-5.0066,-5.0095,-5.0116,-5.0087,-5.0103,-5.0129,-5.0105,-5.0135,-5.0131,-5.013,-4.9969,-4.9952,-5.0154,-5.0154,-5.0154,-5.0154,-5.0154,-5.0154,-5.0132,-5.0188,-5.0165,-5.0219,-5.0206,-5.0239,-5.0243,-5.0246,-5.0241,-5.0278,-5.0295,-5.0276,-5.0262,-5.0277,-5.0293,-5.0284,-5.0293,-5.0332,-5.0314,-5.0164,-5.0141,-5.012,-5.0104,-5.0334,-5.0335,-5.0473,-5.0475,-5.0476]}]]